Location: ???? ??
(36.0534°N, 43.5630°E)
Time: 08:24:30
(UTC+00:00)

Meteor 2-15 Rocket - Pass Details

Date: 18 September 2019
Orbit: 939 x 956 km, 82.5° (Epoch: 19 October)

Event Time Altitude Azimuth Distance (km) Brightness Sun altitude
Rises 15:53:59 0° 178° (S) 3,609 7.4 -9.8°
Reaches altitude 10° 15:56:28 10° 175° (S) 2,669 6.7 -10.3°
Maximum altitude 16:02:31 69° 94° (E) 1,021 4.4 -11.5°
Drops below altitude 10° 16:08:38 10° 12° (NNE) 2,691 6.8 -12.7°
Sets 16:11:09 0° 11° (N) 3,641 7.5 -13.2°
